owner,sensor,date,latitude,longitude,vertical_datum,mass_concentration_of_oxygen_in_sea_water,qcFlag 
DISL,ioos:station:DISL:CATA:1,2011-10-01T00:00:00Z,30.3085,-88.1395,2.144,7.83,1111122 
DISL,ioos:station:DISL:CATA:1,2011-10-01T00:30:00Z,30.3085,-88.1395,2.159,7.63,1111122 
DISL,ioos:station:DISL:CATA:1,2011-10-01T01:00:00Z,30.3085,-88.1395,2.18,7.49,1111122 
DISL,ioos:station:DISL:CATA:1,2011-10-01T01:30:00Z,30.3085,-88.1395,2.203,7.44,1111122 
DISL,ioos:station:DISL:CATA:1,2011-10-01T02:00:00Z,30.3085,-88.1395,2.232,7.34,1111122 
DISL,ioos:station:DISL:CATA:1,2011-10-01T02:30:00Z,30.3085,-88.1395,2.227,7.22,1111122 
DISL,ioos:station:DISL:CATA:1,2011-10-01T03:00:00Z,30.3085,-88.1395,2.247,7.12,1111122 
DISL,ioos:station:DISL:CATA:1,2011-10-01T03:30:00Z,30.3085,-88.1395,2.246,7.05,1111122 
DISL,ioos:station:DISL:CATA:1,2011-10-01T04:00:00Z,30.3085,-88.1395,2.252,6.99,1111122 
DISL,ioos:station:DISL:CATA:1,2011-10-01T04:30:00Z,30.3085,-88.1395,2.28,6.9,1111122 
DISL,ioos:station:DISL:CATA:1,2011-10-01T05:00:00Z,30.3085,-88.1395,2.302,6.83,1111122 
DISL,ioos:station:DISL:CATA:1,2011-10-01T05:30:00Z,30.3085,-88.1395,2.315,6.9,1111122 
DISL,ioos:station:DISL:CATA:1,2011-10-01T06:00:00Z,30.3085,-88.1395,2.307,6.84,1111122 
DISL,ioos:station:DISL:CATA:1,2011-10-01T06:30:00Z,30.3085,-88.1395,2.289,6.7,1111122 
DISL,ioos:station:DISL:CATA:1,2011-10-01T07:00:00Z,30.3085,-88.1395,2.284,6.59,1111122 
DISL,ioos:station:DISL:CATA:1,2011-10-01T07:30:00Z,30.3085,-88.1395,2.278,6.29,1111122 
DISL,ioos:station:DISL:CATA:1,2011-10-01T08:00:00Z,30.3085,-88.1395,2.271,6.29,1111122 
DISL,ioos:station:DISL:CATA:1,2011-10-01T08:30:00Z,30.3085,-88.1395,2.234,6.24,1111122 
DISL,ioos:station:DISL:CATA:1,2011-10-01T09:00:00Z,30.3085,-88.1395,2.242,6.12,1111122 
DISL,ioos:station:DISL:CATA:1,2011-10-01T09:30:00Z,30.3085,-88.1395,2.202,6.0,1111122 
DISL,ioos:station:DISL:CATA:1,2011-10-01T10:00:00Z,30.3085,-88.1395,2.179,5.94,1111122 
DISL,ioos:station:DISL:CATA:1,2011-10-01T10:30:00Z,30.3085,-88.1395,2.156,6.05,1111122 
DISL,ioos:station:DISL:CATA:1,2011-10-01T11:00:00Z,30.3085,-88.1395,2.132,6.24,1111122 
DISL,ioos:station:DISL:CATA:1,2011-10-01T11:30:00Z,30.3085,-88.1395,2.097,6.34,1111122 
DISL,ioos:station:DISL:CATA:1,2011-10-01T12:00:00Z,30.3085,-88.1395,2.048,6.3,1111122 
DISL,ioos:station:DISL:CATA:1,2011-10-01T12:30:00Z,30.3085,-88.1395,2.002,6.28,1111122 
DISL,ioos:station:DISL:CATA:1,2011-10-01T13:00:00Z,30.3085,-88.1395,1.975,6.2,1111122 
DISL,ioos:station:DISL:CATA:1,2011-10-01T13:30:00Z,30.3085,-88.1395,1.952,6.23,1111122 
DISL,ioos:station:DISL:CATA:1,2011-10-01T14:00:00Z,30.3085,-88.1395,1.934,6.26,1111122 
DISL,ioos:station:DISL:CATA:1,2011-10-01T14:30:00Z,30.3085,-88.1395,1.908,6.24,1111122 
DISL,ioos:station:DISL:CATA:1,2011-10-01T15:00:00Z,30.3085,-88.1395,1.897,6.37,1111122 
DISL,ioos:station:DISL:CATA:1,2011-10-01T15:30:00Z,30.3085,-88.1395,1.883,6.49,1111122 
DISL,ioos:station:DISL:CATA:1,2011-10-01T16:00:00Z,30.3085,-88.1395,1.883,6.72,1111122 
DISL,ioos:station:DISL:CATA:1,2011-10-01T16:30:00Z,30.3085,-88.1395,1.89,6.79,1111122 
DISL,ioos:station:DISL:CATA:1,2011-10-01T17:00:00Z,30.3085,-88.1395,1.903,6.8,1111122 
DISL,ioos:station:DISL:CATA:1,2011-10-01T17:30:00Z,30.3085,-88.1395,1.907,6.91,1111122 
DISL,ioos:station:DISL:CATA:1,2011-10-01T18:00:00Z,30.3085,-88.1395,1.917,6.95,1111122 
DISL,ioos:station:DISL:CATA:1,2011-10-01T18:30:00Z,30.3085,-88.1395,1.927,6.83,1111122 
DISL,ioos:station:DISL:CATA:1,2011-10-01T19:00:00Z,30.3085,-88.1395,1.944,6.85,1111122 
DISL,ioos:station:DISL:CATA:1,2011-10-01T19:30:00Z,30.3085,-88.1395,1.953,6.79,1111122 
DISL,ioos:station:DISL:CATA:1,2011-10-01T20:00:00Z,30.3085,-88.1395,1.958,7.77,1111122 
DISL,ioos:station:DISL:CATA:1,2011-10-01T20:30:00Z,30.3085,-88.1395,1.967,8.0,1111122 
DISL,ioos:station:DISL:CATA:1,2011-10-01T21:00:00Z,30.3085,-88.1395,1.973,8.09,1111122 
DISL,ioos:station:DISL:CATA:1,2011-10-01T21:30:00Z,30.3085,-88.1395,1.971,8.18,1111122 
DISL,ioos:station:DISL:CATA:1,2011-10-01T22:00:00Z,30.3085,-88.1395,1.995,8.11,1111122 
DISL,ioos:station:DISL:CATA:1,2011-10-01T22:30:00Z,30.3085,-88.1395,2.0,7.92,1111122 
DISL,ioos:station:DISL:CATA:1,2011-10-01T23:00:00Z,30.3085,-88.1395,2.018,7.98,1111122 
DISL,ioos:station:DISL:CATA:1,2011-10-01T23:30:00Z,30.3085,-88.1395,2.026,7.86,1111122 
DISL,ioos:station:DISL:CATA:1,2011-10-02T00:00:00Z,30.3085,-88.1395,2.056,7.79,1111122 
DISL,ioos:station:DISL:CATA:1,2011-10-02T00:30:00Z,30.3085,-88.1395,2.102,7.85,1111122 
DISL,ioos:station:DISL:CATA:1,2011-10-02T01:00:00Z,30.3085,-88.1395,2.125,7.69,1111122 
DISL,ioos:station:DISL:CATA:1,2011-10-02T01:30:00Z,30.3085,-88.1395,2.14,7.74,1111122 
DISL,ioos:station:DISL:CATA:1,2011-10-02T02:00:00Z,30.3085,-88.1395,2.136,7.61,1111122 
DISL,ioos:station:DISL:CATA:1,2011-10-02T02:30:00Z,30.3085,-88.1395,2.156,7.55,1111122 
DISL,ioos:station:DISL:CATA:1,2011-10-02T03:00:00Z,30.3085,-88.1395,2.184,7.48,1111122 
DISL,ioos:station:DISL:CATA:1,2011-10-02T03:30:00Z,30.3085,-88.1395,2.205,7.45,1111122 
DISL,ioos:station:DISL:CATA:1,2011-10-02T04:00:00Z,30.3085,-88.1395,2.215,7.39,1111122 
DISL,ioos:station:DISL:CATA:1,2011-10-02T04:30:00Z,30.3085,-88.1395,2.22,7.38,1111122 
DISL,ioos:station:DISL:CATA:1,2011-10-02T05:00:00Z,30.3085,-88.1395,2.245,7.24,1111122 
DISL,ioos:station:DISL:CATA:1,2011-10-02T05:30:00Z,30.3085,-88.1395,2.279,7.15,1111122 
DISL,ioos:station:DISL:CATA:1,2011-10-02T06:00:00Z,30.3085,-88.1395,2.293,7.1,1111122 
DISL,ioos:station:DISL:CATA:1,2011-10-02T06:30:00Z,30.3085,-88.1395,2.293,7.03,1111122 
DISL,ioos:station:DISL:CATA:1,2011-10-02T07:00:00Z,30.3085,-88.1395,2.293,6.95,1111122 
DISL,ioos:station:DISL:CATA:1,2011-10-02T07:30:00Z,30.3085,-88.1395,2.296,6.9,1111122 
DISL,ioos:station:DISL:CATA:1,2011-10-02T08:00:00Z,30.3085,-88.1395,2.309,6.82,1111122 
DISL,ioos:station:DISL:CATA:1,2011-10-02T08:30:00Z,30.3085,-88.1395,2.316,6.77,1111122 
DISL,ioos:station:DISL:CATA:1,2011-10-02T09:00:00Z,30.3085,-88.1395,2.304,6.54,1111122 
DISL,ioos:station:DISL:CATA:1,2011-10-02T09:30:00Z,30.3085,-88.1395,2.293,6.73,1111122 
DISL,ioos:station:DISL:CATA:1,2011-10-02T10:00:00Z,30.3085,-88.1395,2.286,6.77,1111122 
DISL,ioos:station:DISL:CATA:1,2011-10-02T10:30:00Z,30.3085,-88.1395,2.261,6.69,1111122 
DISL,ioos:station:DISL:CATA:1,2011-10-02T11:00:00Z,30.3085,-88.1395,2.241,6.39,1111122 
DISL,ioos:station:DISL:CATA:1,2011-10-02T11:30:00Z,30.3085,-88.1395,2.206,6.65,1111122 
DISL,ioos:station:DISL:CATA:1,2011-10-02T12:00:00Z,30.3085,-88.1395,2.163,6.59,1111122 
DISL,ioos:station:DISL:CATA:1,2011-10-02T12:30:00Z,30.3085,-88.1395,2.124,7.19,1111122 
DISL,ioos:station:DISL:CATA:1,2011-10-02T13:00:00Z,30.3085,-88.1395,2.082,7.3,1111122 
DISL,ioos:station:DISL:CATA:1,2011-10-02T13:30:00Z,30.3085,-88.1395,2.028,7.35,1111122 
DISL,ioos:station:DISL:CATA:1,2011-10-02T14:00:00Z,30.3085,-88.1395,1.989,7.01,1111122 
DISL,ioos:station:DISL:CATA:1,2011-10-02T14:30:00Z,30.3085,-88.1395,1.963,6.55,1111122 
DISL,ioos:station:DISL:CATA:1,2011-10-02T15:00:00Z,30.3085,-88.1395,1.933,6.55,1111122 
DISL,ioos:station:DISL:CATA:1,2011-10-02T15:30:00Z,30.3085,-88.1395,1.909,6.56,1111122 
DISL,ioos:station:DISL:CATA:1,2011-10-02T16:00:00Z,30.3085,-88.1395,1.89,6.6,1111122 
DISL,ioos:station:DISL:CATA:1,2011-10-02T16:30:00Z,30.3085,-88.1395,1.889,6.72,1111122 
DISL,ioos:station:DISL:CATA:1,2011-10-02T17:00:00Z,30.3085,-88.1395,1.891,6.75,1111122 
DISL,ioos:station:DISL:CATA:1,2011-10-02T17:30:00Z,30.3085,-88.1395,1.884,6.68,1111122 
DISL,ioos:station:DISL:CATA:1,2011-10-02T18:00:00Z,30.3085,-88.1395,1.885,6.53,1111122 
DISL,ioos:station:DISL:CATA:1,2011-10-02T18:30:00Z,30.3085,-88.1395,1.885,5.89,1111122 
DISL,ioos:station:DISL:CATA:1,2011-10-02T19:00:00Z,30.3085,-88.1395,1.89,5.24,1111122 
DISL,ioos:station:DISL:CATA:1,2011-10-02T19:30:00Z,30.3085,-88.1395,1.886,6.51,1111122 
DISL,ioos:station:DISL:CATA:1,2011-10-02T20:00:00Z,30.3085,-88.1395,1.888,6.55,1111122 
DISL,ioos:station:DISL:CATA:1,2011-10-02T20:30:00Z,30.3085,-88.1395,1.886,6.92,1111122 
DISL,ioos:station:DISL:CATA:1,2011-10-02T21:00:00Z,30.3085,-88.1395,1.897,7.07,1111122 
DISL,ioos:station:DISL:CATA:1,2011-10-02T21:30:00Z,30.3085,-88.1395,1.905,7.15,1111122 
DISL,ioos:station:DISL:CATA:1,2011-10-02T22:00:00Z,30.3085,-88.1395,1.915,7.61,1111122 
DISL,ioos:station:DISL:CATA:1,2011-10-02T22:30:00Z,30.3085,-88.1395,1.941,8.21,1111122 
DISL,ioos:station:DISL:CATA:1,2011-10-02T23:00:00Z,30.3085,-88.1395,1.961,8.28,1111122 
DISL,ioos:station:DISL:CATA:1,2011-10-02T23:30:00Z,30.3085,-88.1395,1.981,8.65,1111122 
DISL,ioos:station:DISL:CATA:1,2011-10-03T00:00:00Z,30.3085,-88.1395,1.997,8.43,1111122 
DISL,ioos:station:DISL:CATA:1,2011-10-03T00:30:00Z,30.3085,-88.1395,2.02,8.36,1111122 
DISL,ioos:station:DISL:CATA:1,2011-10-03T01:00:00Z,30.3085,-88.1395,2.045,8.09,1111122 
DISL,ioos:station:DISL:CATA:1,2011-10-03T01:30:00Z,30.3085,-88.1395,2.075,8.39,1111122 
DISL,ioos:station:DISL:CATA:1,2011-10-03T02:00:00Z,30.3085,-88.1395,2.106,8.47,1111122 
DISL,ioos:station:DISL:CATA:1,2011-10-03T02:30:00Z,30.3085,-88.1395,2.121,8.37,1111122 
DISL,ioos:station:DISL:CATA:1,2011-10-03T03:00:00Z,30.3085,-88.1395,2.137,8.1,1111122 
DISL,ioos:station:DISL:CATA:1,2011-10-03T03:30:00Z,30.3085,-88.1395,2.163,7.84,1111122 
DISL,ioos:station:DISL:CATA:1,2011-10-03T04:00:00Z,30.3085,-88.1395,2.193,7.66,1111122 
DISL,ioos:station:DISL:CATA:1,2011-10-03T04:30:00Z,30.3085,-88.1395,2.215,7.64,1111122 
DISL,ioos:station:DISL:CATA:1,2011-10-03T05:00:00Z,30.3085,-88.1395,2.242,7.63,1111122 
DISL,ioos:station:DISL:CATA:1,2011-10-03T05:30:00Z,30.3085,-88.1395,2.246,7.6,1111122 
DISL,ioos:station:DISL:CATA:1,2011-10-03T06:00:00Z,30.3085,-88.1395,2.245,7.56,1111122 
DISL,ioos:station:DISL:CATA:1,2011-10-03T06:30:00Z,30.3085,-88.1395,2.27,7.54,1111122 
DISL,ioos:station:DISL:CATA:1,2011-10-03T07:00:00Z,30.3085,-88.1395,2.271,7.57,1111122 
DISL,ioos:station:DISL:CATA:1,2011-10-03T07:30:00Z,30.3085,-88.1395,2.273,7.56,1111122 
DISL,ioos:station:DISL:CATA:1,2011-10-03T08:00:00Z,30.3085,-88.1395,2.273,7.54,1111122 
DISL,ioos:station:DISL:CATA:1,2011-10-03T08:30:00Z,30.3085,-88.1395,2.275,7.38,1111122 
DISL,ioos:station:DISL:CATA:1,2011-10-03T09:00:00Z,30.3085,-88.1395,2.267,7.28,1111122 
DISL,ioos:station:DISL:CATA:1,2011-10-03T09:30:00Z,30.3085,-88.1395,2.27,6.92,1111122 
DISL,ioos:station:DISL:CATA:1,2011-10-03T10:00:00Z,30.3085,-88.1395,2.266,7.15,1111122 
DISL,ioos:station:DISL:CATA:1,2011-10-03T10:30:00Z,30.3085,-88.1395,2.251,7.17,1111122 
DISL,ioos:station:DISL:CATA:1,2011-10-03T11:00:00Z,30.3085,-88.1395,2.237,7.31,1111122 
DISL,ioos:station:DISL:CATA:1,2011-10-03T11:30:00Z,30.3085,-88.1395,2.22,7.41,1111122 
DISL,ioos:station:DISL:CATA:1,2011-10-03T12:00:00Z,30.3085,-88.1395,2.202,7.34,1111122 
DISL,ioos:station:DISL:CATA:1,2011-10-03T12:30:00Z,30.3085,-88.1395,2.165,7.29,1111122 
DISL,ioos:station:DISL:CATA:1,2011-10-03T13:00:00Z,30.3085,-88.1395,2.123,7.22,1111122 
DISL,ioos:station:DISL:CATA:1,2011-10-03T13:30:00Z,30.3085,-88.1395,2.083,7.19,1111122 
DISL,ioos:station:DISL:CATA:1,2011-10-03T14:00:00Z,30.3085,-88.1395,2.035,7.11,1111122 
DISL,ioos:station:DISL:CATA:1,2011-10-03T14:30:00Z,30.3085,-88.1395,1.997,7.09,1111122 
DISL,ioos:station:DISL:CATA:1,2011-10-03T15:00:00Z,30.3085,-88.1395,1.975,7.13,1111122 
DISL,ioos:station:DISL:CATA:1,2011-10-03T15:30:00Z,30.3085,-88.1395,1.943,7.16,1111122 
DISL,ioos:station:DISL:CATA:1,2011-10-03T16:00:00Z,30.3085,-88.1395,1.919,7.24,1111122 
DISL,ioos:station:DISL:CATA:1,2011-10-03T16:30:00Z,30.3085,-88.1395,1.905,7.23,1111122 
DISL,ioos:station:DISL:CATA:1,2011-10-03T17:00:00Z,30.3085,-88.1395,1.892,7.23,1111122 
DISL,ioos:station:DISL:CATA:1,2011-10-03T17:30:00Z,30.3085,-88.1395,1.885,7.3,1111122 
DISL,ioos:station:DISL:CATA:1,2011-10-03T18:00:00Z,30.3085,-88.1395,1.875,7.37,1111122 
DISL,ioos:station:DISL:CATA:1,2011-10-03T18:30:00Z,30.3085,-88.1395,1.874,7.41,1111122 
DISL,ioos:station:DISL:CATA:1,2011-10-03T19:00:00Z,30.3085,-88.1395,1.878,7.4,1111122 
DISL,ioos:station:DISL:CATA:1,2011-10-03T19:30:00Z,30.3085,-88.1395,1.878,7.4,1111122 
DISL,ioos:station:DISL:CATA:1,2011-10-03T20:00:00Z,30.3085,-88.1395,1.868,7.34,1111122 
DISL,ioos:station:DISL:CATA:1,2011-10-03T20:30:00Z,30.3085,-88.1395,1.87,7.05,1111122 
DISL,ioos:station:DISL:CATA:1,2011-10-03T21:00:00Z,30.3085,-88.1395,1.866,7.07,1111122 
DISL,ioos:station:DISL:CATA:1,2011-10-03T21:30:00Z,30.3085,-88.1395,1.876,7.0,1111122 
DISL,ioos:station:DISL:CATA:1,2011-10-03T22:00:00Z,30.3085,-88.1395,1.893,6.37,1111122 
DISL,ioos:station:DISL:CATA:1,2011-10-03T22:30:00Z,30.3085,-88.1395,1.904,7.66,1111122 
DISL,ioos:station:DISL:CATA:1,2011-10-03T23:00:00Z,30.3085,-88.1395,1.928,7.66,1111122 
DISL,ioos:station:DISL:CATA:1,2011-10-03T23:30:00Z,30.3085,-88.1395,1.949,8.25,1111122 
DISL,ioos:station:DISL:CATA:1,2011-10-04T00:00:00Z,30.3085,-88.1395,1.963,8.47,1111122 
DISL,ioos:station:DISL:CATA:1,2011-10-04T00:30:00Z,30.3085,-88.1395,1.988,8.37,1111122 
DISL,ioos:station:DISL:CATA:1,2011-10-04T01:00:00Z,30.3085,-88.1395,2.016,8.2,1111122 
DISL,ioos:station:DISL:CATA:1,2011-10-04T01:30:00Z,30.3085,-88.1395,2.044,8.03,1111122 
DISL,ioos:station:DISL:CATA:1,2011-10-04T02:00:00Z,30.3085,-88.1395,2.078,8.01,1111122 
DISL,ioos:station:DISL:CATA:1,2011-10-04T02:30:00Z,30.3085,-88.1395,2.098,8.03,1111122 
DISL,ioos:station:DISL:CATA:1,2011-10-04T03:00:00Z,30.3085,-88.1395,2.116,7.95,1111122 
DISL,ioos:station:DISL:CATA:1,2011-10-04T03:30:00Z,30.3085,-88.1395,2.14,7.96,1111122 
DISL,ioos:station:DISL:CATA:1,2011-10-04T04:00:00Z,30.3085,-88.1395,2.165,8.38,1111122 
DISL,ioos:station:DISL:CATA:1,2011-10-04T04:30:00Z,30.3085,-88.1395,2.187,8.4,1111122 
DISL,ioos:station:DISL:CATA:1,2011-10-04T05:00:00Z,30.3085,-88.1395,2.209,8.32,1111122 
DISL,ioos:station:DISL:CATA:1,2011-10-04T05:30:00Z,30.3085,-88.1395,2.222,8.17,1111122 
DISL,ioos:station:DISL:CATA:1,2011-10-04T06:00:00Z,30.3085,-88.1395,2.233,8.09,1111122 
DISL,ioos:station:DISL:CATA:1,2011-10-04T06:30:00Z,30.3085,-88.1395,2.263,8.15,1111122 
DISL,ioos:station:DISL:CATA:1,2011-10-04T07:00:00Z,30.3085,-88.1395,2.287,8.01,1111122 
DISL,ioos:station:DISL:CATA:1,2011-10-04T07:30:00Z,30.3085,-88.1395,2.306,7.89,1111122 
DISL,ioos:station:DISL:CATA:1,2011-10-04T08:00:00Z,30.3085,-88.1395,2.316,7.8,1111122 
DISL,ioos:station:DISL:CATA:1,2011-10-04T08:30:00Z,30.3085,-88.1395,2.321,7.75,1111122 
DISL,ioos:station:DISL:CATA:1,2011-10-04T09:00:00Z,30.3085,-88.1395,2.314,7.67,1111122 
DISL,ioos:station:DISL:CATA:1,2011-10-04T09:30:00Z,30.3085,-88.1395,2.297,7.58,1111122 
DISL,ioos:station:DISL:CATA:1,2011-10-04T10:00:00Z,30.3085,-88.1395,2.288,7.34,1111122 
DISL,ioos:station:DISL:CATA:1,2011-10-04T10:30:00Z,30.3085,-88.1395,2.286,7.13,1111122 
DISL,ioos:station:DISL:CATA:1,2011-10-04T11:00:00Z,30.3085,-88.1395,2.267,7.46,1111122 
DISL,ioos:station:DISL:CATA:1,2011-10-04T11:30:00Z,30.3085,-88.1395,2.255,7.52,1111122 
DISL,ioos:station:DISL:CATA:1,2011-10-04T12:00:00Z,30.3085,-88.1395,2.237,7.32,1111122 
DISL,ioos:station:DISL:CATA:1,2011-10-04T12:30:00Z,30.3085,-88.1395,2.229,7.13,1111122 
DISL,ioos:station:DISL:CATA:1,2011-10-04T13:00:00Z,30.3085,-88.1395,2.213,6.93,1111122 
DISL,ioos:station:DISL:CATA:1,2011-10-04T13:30:00Z,30.3085,-88.1395,2.188,7.41,1111122 
DISL,ioos:station:DISL:CATA:1,2011-10-04T14:00:00Z,30.3085,-88.1395,2.158,7.54,1111122 
DISL,ioos:station:DISL:CATA:1,2011-10-04T14:30:00Z,30.3085,-88.1395,2.127,7.65,1111122 
DISL,ioos:station:DISL:CATA:1,2011-10-04T15:00:00Z,30.3085,-88.1395,2.096,7.7,1111122 
DISL,ioos:station:DISL:CATA:1,2011-10-04T15:30:00Z,30.3085,-88.1395,2.062,7.67,1111122 
DISL,ioos:station:DISL:CATA:1,2011-10-04T16:00:00Z,30.3085,-88.1395,2.032,7.71,1111122 
DISL,ioos:station:DISL:CATA:1,2011-10-04T16:30:00Z,30.3085,-88.1395,1.996,7.67,1111122 
DISL,ioos:station:DISL:CATA:1,2011-10-04T17:00:00Z,30.3085,-88.1395,1.974,7.69,1111122 
DISL,ioos:station:DISL:CATA:1,2011-10-04T17:30:00Z,30.3085,-88.1395,1.954,7.47,1111122 
DISL,ioos:station:DISL:CATA:1,2011-10-04T18:00:00Z,30.3085,-88.1395,1.941,7.38,1111122 
DISL,ioos:station:DISL:CATA:1,2011-10-04T18:30:00Z,30.3085,-88.1395,1.931,7.61,1111122 
DISL,ioos:station:DISL:CATA:1,2011-10-04T19:00:00Z,30.3085,-88.1395,1.928,7.69,1111122 
DISL,ioos:station:DISL:CATA:1,2011-10-04T19:30:00Z,30.3085,-88.1395,1.922,7.76,1111122 
DISL,ioos:station:DISL:CATA:1,2011-10-04T20:00:00Z,30.3085,-88.1395,1.916,7.96,1111122 
DISL,ioos:station:DISL:CATA:1,2011-10-04T20:30:00Z,30.3085,-88.1395,1.911,7.9,1111122 
DISL,ioos:station:DISL:CATA:1,2011-10-04T21:00:00Z,30.3085,-88.1395,1.916,7.96,1111122 
DISL,ioos:station:DISL:CATA:1,2011-10-04T21:30:00Z,30.3085,-88.1395,1.921,6.88,1111122 
DISL,ioos:station:DISL:CATA:1,2011-10-04T22:00:00Z,30.3085,-88.1395,1.93,6.03,1111122 
DISL,ioos:station:DISL:CATA:1,2011-10-04T22:30:00Z,30.3085,-88.1395,1.936,7.91,1111122 
DISL,ioos:station:DISL:CATA:1,2011-10-04T23:00:00Z,30.3085,-88.1395,1.948,7.98,1111122 
DISL,ioos:station:DISL:CATA:1,2011-10-04T23:30:00Z,30.3085,-88.1395,1.966,8.25,1111122 
DISL,ioos:station:DISL:CATA:1,2011-10-05T00:00:00Z,30.3085,-88.1395,1.988,8.37,1111122 
DISL,ioos:station:DISL:CATA:1,2011-10-05T00:30:00Z,30.3085,-88.1395,2.007,8.24,1111122 
DISL,ioos:station:DISL:CATA:1,2011-10-05T01:00:00Z,30.3085,-88.1395,2.04,8.2,1111122 
DISL,ioos:station:DISL:CATA:1,2011-10-05T01:30:00Z,30.3085,-88.1395,2.071,8.29,1111122 
DISL,ioos:station:DISL:CATA:1,2011-10-05T02:00:00Z,30.3085,-88.1395,2.087,8.2,1111122 
DISL,ioos:station:DISL:CATA:1,2011-10-05T02:30:00Z,30.3085,-88.1395,2.105,8.32,1111122 
DISL,ioos:station:DISL:CATA:1,2011-10-05T03:00:00Z,30.3085,-88.1395,2.138,8.25,1111122 
DISL,ioos:station:DISL:CATA:1,2011-10-05T03:30:00Z,30.3085,-88.1395,2.161,8.1,1111122 
DISL,ioos:station:DISL:CATA:1,2011-10-05T04:00:00Z,30.3085,-88.1395,2.181,8.08,1111122 
DISL,ioos:station:DISL:CATA:1,2011-10-05T04:30:00Z,30.3085,-88.1395,2.21,8.2,1111122 
DISL,ioos:station:DISL:CATA:1,2011-10-05T05:00:00Z,30.3085,-88.1395,2.232,8.29,1111122 
DISL,ioos:station:DISL:CATA:1,2011-10-05T05:30:00Z,30.3085,-88.1395,2.25,8.29,1111122 
DISL,ioos:station:DISL:CATA:1,2011-10-05T06:00:00Z,30.3085,-88.1395,2.27,8.13,1111122 
DISL,ioos:station:DISL:CATA:1,2011-10-05T06:30:00Z,30.3085,-88.1395,2.289,8.11,1111122 
DISL,ioos:station:DISL:CATA:1,2011-10-05T07:00:00Z,30.3085,-88.1395,2.314,8.13,1111122 
DISL,ioos:station:DISL:CATA:1,2011-10-05T07:30:00Z,30.3085,-88.1395,2.331,8.09,1111122 
DISL,ioos:station:DISL:CATA:1,2011-10-05T08:00:00Z,30.3085,-88.1395,2.349,8.1,1111122 
DISL,ioos:station:DISL:CATA:1,2011-10-05T08:30:00Z,30.3085,-88.1395,2.359,8.06,1111122 
DISL,ioos:station:DISL:CATA:1,2011-10-05T09:00:00Z,30.3085,-88.1395,2.373,8.02,1111122 
DISL,ioos:station:DISL:CATA:1,2011-10-05T09:30:00Z,30.3085,-88.1395,2.377,8.06,1111122 
DISL,ioos:station:DISL:CATA:1,2011-10-05T10:00:00Z,30.3085,-88.1395,2.374,7.99,1111122 
DISL,ioos:station:DISL:CATA:1,2011-10-05T10:30:00Z,30.3085,-88.1395,2.361,7.47,1111122 
DISL,ioos:station:DISL:CATA:1,2011-10-05T11:00:00Z,30.3085,-88.1395,2.355,7.28,1111122 
DISL,ioos:station:DISL:CATA:1,2011-10-05T11:30:00Z,30.3085,-88.1395,2.347,7.02,1111122 
DISL,ioos:station:DISL:CATA:1,2011-10-05T12:00:00Z,30.3085,-88.1395,2.329,7.43,1111122 
DISL,ioos:station:DISL:CATA:1,2011-10-05T12:30:00Z,30.3085,-88.1395,2.31,7.6,1111122 
DISL,ioos:station:DISL:CATA:1,2011-10-05T13:00:00Z,30.3085,-88.1395,2.293,7.41,1111122 
DISL,ioos:station:DISL:CATA:1,2011-10-05T13:30:00Z,30.3085,-88.1395,2.272,7.43,1111122 
DISL,ioos:station:DISL:CATA:1,2011-10-05T14:00:00Z,30.3085,-88.1395,2.246,7.41,1111122 
DISL,ioos:station:DISL:CATA:1,2011-10-05T14:30:00Z,30.3085,-88.1395,2.22,7.03,1111122 
DISL,ioos:station:DISL:CATA:1,2011-10-05T15:00:00Z,30.3085,-88.1395,2.194,6.96,1111122 
DISL,ioos:station:DISL:CATA:1,2011-10-05T15:30:00Z,30.3085,-88.1395,2.163,7.17,1111122 
DISL,ioos:station:DISL:CATA:1,2011-10-05T16:00:00Z,30.3085,-88.1395,2.138,7.35,1111122 
DISL,ioos:station:DISL:CATA:1,2011-10-05T16:30:00Z,30.3085,-88.1395,2.109,7.36,1111122 
DISL,ioos:station:DISL:CATA:1,2011-10-05T17:00:00Z,30.3085,-88.1395,2.082,7.48,1111122 
DISL,ioos:station:DISL:CATA:1,2011-10-05T17:30:00Z,30.3085,-88.1395,2.056,7.81,1111122 
DISL,ioos:station:DISL:CATA:1,2011-10-05T18:00:00Z,30.3085,-88.1395,2.028,7.98,1111122 
DISL,ioos:station:DISL:CATA:1,2011-10-05T18:30:00Z,30.3085,-88.1395,2.013,8.04,1111122 
DISL,ioos:station:DISL:CATA:1,2011-10-05T19:00:00Z,30.3085,-88.1395,2.004,8.07,1111122 
DISL,ioos:station:DISL:CATA:1,2011-10-05T19:30:00Z,30.3085,-88.1395,1.987,8.25,1111122 
DISL,ioos:station:DISL:CATA:1,2011-10-05T20:00:00Z,30.3085,-88.1395,1.971,8.39,1111122 
DISL,ioos:station:DISL:CATA:1,2011-10-05T20:30:00Z,30.3085,-88.1395,1.963,8.6,1111122 
DISL,ioos:station:DISL:CATA:1,2011-10-05T21:00:00Z,30.3085,-88.1395,1.963,8.47,1111122 
DISL,ioos:station:DISL:CATA:1,2011-10-05T21:30:00Z,30.3085,-88.1395,1.97,8.44,1111122 
DISL,ioos:station:DISL:CATA:1,2011-10-05T22:00:00Z,30.3085,-88.1395,1.98,8.52,1111122 
DISL,ioos:station:DISL:CATA:1,2011-10-05T22:30:00Z,30.3085,-88.1395,1.988,8.29,1111122 
DISL,ioos:station:DISL:CATA:1,2011-10-05T23:00:00Z,30.3085,-88.1395,1.994,8.14,1111122 
DISL,ioos:station:DISL:CATA:1,2011-10-05T23:30:00Z,30.3085,-88.1395,2.01,8.06,1111122 
DISL,ioos:station:DISL:CATA:1,2011-10-06T00:00:00Z,30.3085,-88.1395,2.019,7.54,1111122 
DISL,ioos:station:DISL:CATA:1,2011-10-06T00:30:00Z,30.3085,-88.1395,2.028,7.23,1111122 
DISL,ioos:station:DISL:CATA:1,2011-10-06T01:00:00Z,30.3085,-88.1395,2.048,7.26,1111122 
DISL,ioos:station:DISL:CATA:1,2011-10-06T01:30:00Z,30.3085,-88.1395,2.078,7.44,1111122 
DISL,ioos:station:DISL:CATA:1,2011-10-06T02:00:00Z,30.3085,-88.1395,2.101,7.74,1111122 
DISL,ioos:station:DISL:CATA:1,2011-10-06T02:30:00Z,30.3085,-88.1395,2.125,7.97,1111122 
DISL,ioos:station:DISL:CATA:1,2011-10-06T03:00:00Z,30.3085,-88.1395,2.138,8.1,1111122 
DISL,ioos:station:DISL:CATA:1,2011-10-06T03:30:00Z,30.3085,-88.1395,2.156,8.15,1111122 
DISL,ioos:station:DISL:CATA:1,2011-10-06T04:00:00Z,30.3085,-88.1395,2.177,8.18,1111122 
DISL,ioos:station:DISL:CATA:1,2011-10-06T04:30:00Z,30.3085,-88.1395,2.191,8.12,1111122 
DISL,ioos:station:DISL:CATA:1,2011-10-06T05:00:00Z,30.3085,-88.1395,2.205,8.09,1111122 
DISL,ioos:station:DISL:CATA:1,2011-10-06T05:30:00Z,30.3085,-88.1395,2.211,8.04,1111122 
DISL,ioos:station:DISL:CATA:1,2011-10-06T06:00:00Z,30.3085,-88.1395,2.231,8.0,1111122 
DISL,ioos:station:DISL:CATA:1,2011-10-06T06:30:00Z,30.3085,-88.1395,2.256,7.89,1111122 
DISL,ioos:station:DISL:CATA:1,2011-10-06T07:00:00Z,30.3085,-88.1395,2.274,7.65,1111122 
DISL,ioos:station:DISL:CATA:1,2011-10-06T07:30:00Z,30.3085,-88.1395,2.297,7.6,1111122 
DISL,ioos:station:DISL:CATA:1,2011-10-06T08:00:00Z,30.3085,-88.1395,2.321,7.57,1111122 
DISL,ioos:station:DISL:CATA:1,2011-10-06T08:30:00Z,30.3085,-88.1395,2.333,7.63,1111122 
DISL,ioos:station:DISL:CATA:1,2011-10-06T09:00:00Z,30.3085,-88.1395,2.341,7.49,1111122 
DISL,ioos:station:DISL:CATA:1,2011-10-06T09:30:00Z,30.3085,-88.1395,2.347,7.45,1111122 
DISL,ioos:station:DISL:CATA:1,2011-10-06T10:00:00Z,30.3085,-88.1395,2.348,7.36,1111122 
DISL,ioos:station:DISL:CATA:1,2011-10-06T10:30:00Z,30.3085,-88.1395,2.357,7.26,1111122 
DISL,ioos:station:DISL:CATA:1,2011-10-06T11:00:00Z,30.3085,-88.1395,2.355,6.92,1111122 
DISL,ioos:station:DISL:CATA:1,2011-10-06T11:30:00Z,30.3085,-88.1395,2.359,7.03,1111122 
DISL,ioos:station:DISL:CATA:1,2011-10-06T12:00:00Z,30.3085,-88.1395,2.353,7.12,1111122 
DISL,ioos:station:DISL:CATA:1,2011-10-06T12:30:00Z,30.3085,-88.1395,2.357,7.27,1111122 
DISL,ioos:station:DISL:CATA:1,2011-10-06T13:00:00Z,30.3085,-88.1395,2.37,7.27,1111122 
DISL,ioos:station:DISL:CATA:1,2011-10-06T13:30:00Z,30.3085,-88.1395,2.367,7.57,1111122 
DISL,ioos:station:DISL:CATA:1,2011-10-06T14:00:00Z,30.3085,-88.1395,2.352,7.62,1111122 
DISL,ioos:station:DISL:CATA:1,2011-10-06T14:30:00Z,30.3085,-88.1395,2.335,7.57,1111122 
DISL,ioos:station:DISL:CATA:1,2011-10-06T15:00:00Z,30.3085,-88.1395,2.322,7.65,1111122 
DISL,ioos:station:DISL:CATA:1,2011-10-06T15:30:00Z,30.3085,-88.1395,2.297,7.46,1111122 